Wind_Speed
8 9 9 8 6 4 1 1 1 1 3 3 1 0 1 1 3 3 4 5 3 1 1 4 6 3 1 3 5 4 3 3 3 4 2 3 14 19 14 16 18 17 15 12 11 10 8 8 9 8 8 7 7 7 7 7 8 8 8 9 9 10 11 12 12 13 14 15 14 15 16 16 15 16 15 14 13 13 13 15 15 15 16 15 15 16 16 16 17 16 14 14 16 16 16 16 16
7 8 6 5 4 2 0 1 2 2 4 3 1 1 1 2 4 5 7 6 4 4 3 6 5 4 3 5 6 3 3 3 1 3 2 10 18 15 15 19 19 18 15 12 10 9 8 8 8 8 8 7 7 7 7 7 7 7 7 8 8 9 11 12 12 14 15 14 15 16 17 15 15 15 15 13 12 12 14 15 15 15 15 16 16 16 16 16 17 17 14 14 15 15 15 15 15
6 4 3 3 1 1 0 2 2 2 4 3 1 2 0 2 4 5 5 3 5 8 6 5 5 3 2 3 3 2 1 3 3 4 5 15 14 12 19 20 19 18 15 12 10 9 9 8 8 9 8 7 7 7 7 7 7 7 7 7 8 9 11 12 13 14 15 14 15 16 16 16 15 15 14 12 11 13 15 15 14 14 15 15 15 15 15 15 16 16 14 14 15 15 15 14 14
4 1 2 3 1 1 1 2 1 3 4 3 1 2 2 4 4 3 2 1 7 10 7 5 3 1 2 3 2 1 1 2 3 5 6 11 10 17 23 20 20 18 14 12 11 10 9 8 8 9 8 7 7 7 7 7 7 6 6 7 7 8 10 11 12 15 14 13 15 15 15 15 15 14 12 11 12 14 15 14 13 14 15 15 15 15 14 14 14 14 14 15 14 14 14 14 13
2 2 3 3 1 0 1 2 1 3 3 3 3 2 2 3 4 5 3 3 6 8 6 4 2 1 3 3 1 1 1 2 3 5 7 9 13 22 23 21 21 17 14 11 11 10 9 9 8 8 7 6 6 7 7 6 6 6 6 7 7 7 8 9 10 14 14 14 14 14 14 15 15 14 12 10 12 14 14 14 13 14 14 14 14 15 14 13 14 14 15 14 14 13 13 13 13
2 3 2 1 1 1 1 2 2 3 2 4 4 2 2 3 6 8 6 5 4 5 5 3 3 3 3 1 2 2 2 3 4 5 9 13 18 22 22 22 19 15 13 12 12 11 10 8 7 7 6 5 5 5 5 5 6 6 6 8 8 8 8 8 9 12 13 13 14 14 14 14 15 15 12 10 12 13 13 13 13 14 14 14 14 14 14 13 13 14 14 13 13 13 13 13 12
1 2 1 1 1 0 2 3 2 1 0 2 4 4 5 4 6 9 8 6 3 4 5 4 4 5 2 0 2 2 2 5 5 6 12 18 20 21 20 20 17 14 13 12 12 11 9 7 6 6 5 5 4 4 5 5 6 6 6 7 8 9 9 9 9 11 11 12 14 14 12 13 14 15 13 11 11 12 12 13 13 13 14 14 13 13 12 13 14 14 13 12 12 12 13 12 11
1 1 0 2 1 1 3 3 1 0 0 0 2 4 6 6 6 7 7 4 2 2 4 5 4 4 1 2 2 3 5 7 7 11 17 21 20 19 19 17 15 14 13 12 11 9 7 6 5 5 4 4 4 5 5 5 6 7 7 7 8 8 10 10 10 12 12 13 15 13 12 12 13 14 13 12 11 11 12 12 13 13 13 14 14 12 12 13 14 13 12 12 11 12 12 11 11
2 2 0 2 1 2 2 2 2 1 1 1 3 4 5 5 4 6 6 4 4 3 4 3 3 4 1 4 3 2 7 10 13 17 19 20 19 18 17 15 14 14 14 12 10 8 7 6 5 4 4 4 5 5 6 7 6 7 8 8 10 9 10 10 11 12 12 14 16 13 12 12 12 12 12 12 11 11 12 12 13 13 13 13 13 13 12 13 13 12 11 11 11 11 11 10 10
1 1 0 1 2 3 3 1 1 2 1 1 3 5 4 3 3 5 7 6 4 4 4 5 6 6 4 4 2 1 8 15 18 18 18 19 17 16 14 12 12 13 14 11 10 7 6 7 5 4 4 4 5 6 6 7 6 8 8 9 9 9 10 10 12 12 11 13 16 13 11 12 11 11 11 12 11 11 12 12 13 13 13 12 12 12 12 12 12 11 11 11 11 11 10 9 9
1 2 1 2 3 3 3 2 2 2 1 2 3 2 3 4 6 5 6 6 4 5 5 6 7 5 5 3 2 4 12 17 18 17 16 17 16 14 13 12 11 12 13 11 9 7 6 7 6 5 5 4 4 5 6 5 6 8 8 9 9 9 10 10 12 12 13 14 15 13 12 12 12 11 12 12 12 12 12 12 13 13 13 12 12 12 11 11 11 10 10 10 10 10 10 9 8
2 2 1 3 2 1 2 3 3 3 3 5 3 2 2 5 7 7 7 7 5 7 4 3 5 4 4 2 1 7 12 13 15 17 16 16 15 13 12 12 12 12 12 11 8 7 6 7 7 6 5 5 4 4 5 5 6 8 9 9 9 10 10 12 12 12 13 14 15 14 13 12 12 12 12 12 12 12 12 12 12 13 12 12 12 11 10 10 9 9 9 10 9 9 9 9 8
2 1 2 3 1 0 3 3 3 4 4 3 3 2 4 5 7 9 7 7 6 5 2 4 6 4 4 2 2 5 8 11 15 16 15 15 13 12 12 12 13 13 11 10 8 7 6 6 6 6 5 4 4 4 4 6 7 7 9 9 10 10 10 12 14 13 11 12 14 13 13 13 12 12 12 12 12 12 11 11 12 13 12 12 11 10 9 9 9 8 9 9 9 8 8 8 8
1 1 2 2 1 1 3 2 3 5 3 1 2 4 4 1 5 9 10 9 3 1 3 5 6 6 4 2 3 3 6 13 15 15 14 14 13 12 13 13 14 13 11 9 8 6 6 5 5 5 5 4 4 4 4 5 6 7 8 9 9 9 9 12 15 15 12 12 13 13 12 12 12 12 12 12 12 12 11 11 11 12 12 11 10 9 8 8 8 8 8 8 7 7 7 7 6
1 1 2 2 1 1 1 2 4 5 3 2 3 5 4 3 2 6 8 7 3 2 6 5 4 4 3 4 4 4 10 17 16 15 15 14 14 13 13 14 14 13 11 9 7 5 5 5 4 4 5 5 4 5 6 6 6 6 7 7 8 7 8 10 14 16 15 13 13 13 12 11 12 13 12 11 11 11 11 11 11 11 10 10 9 8 7 6 7 6 6 6 6 6 7 6 5
1 1 2 2 1 2 1 1 3 4 2 2 4 6 6 4 3 4 1 3 6 4 5 3 0 2 5 3 5 10 17 19 17 16 16 15 15 14 14 14 14 13 11 8 6 5 4 4 4 5 5 5 4 5 6 6 6 6 6 6 6 6 6 9 13 15 16 14 13 13 11 12 13 12 11 10 10 10 10 10 10 9 9 8 8 7 7 6 6 6 5 5 5 4 5 5 5
1 2 3 2 1 2 1 1 2 2 1 3 5 6 8 3 1 3 4 6 7 5 5 4 3 3 6 6 13 19 20 20 18 18 16 16 15 14 14 14 14 13 10 8 6 5 4 4 4 6 5 5 4 4 6 7 7 6 6 7 6 6 7 9 12 14 16 15 13 12 11 12 14 12 11 11 9 9 9 9 8 8 8 7 6 6 6 6 6 5 5 4 4 3 4 4 5
2 2 2 1 2 2 1 2 1 1 2 4 5 7 11 7 2 3 5 7 6 7 7 6 7 7 10 14 21 22 20 20 19 18 16 15 14 13 13 13 14 12 10 8 5 4 4 4 5 6 6 6 5 5 7 8 7 7 7 9 8 7 7 10 11 12 15 16 14 12 10 12 13 12 12 12 9 8 8 7 6 7 6 6 6 6 6 6 5 5 5 4 4 4 4 4 3
1 2 2 2 3 2 1 1 1 0 2 4 5 7 10 8 6 4 4 4 5 8 6 6 9 9 11 16 20 20 20 20 17 16 15 13 13 12 13 13 13 12 10 8 6 5 4 4 5 6 7 7 7 7 8 8 8 8 9 10 9 9 9 10 11 11 14 16 15 12 10 11 13 12 11 10 8 7 6 5 6 6 6 6 6 6 5 5 5 5 5 5 5 4 3 2 1
1 2 1 3 1 1 1 2 1 1 1 5 6 5 6 6 5 4 5 7 5 7 6 7 9 8 10 12 16 18 18 16 15 15 13 12 11 12 13 13 13 12 11 9 7 5 4 4 5 7 8 7 8 8 8 8 8 9 10 11 10 10 10 10 11 11 12 16 17 14 11 10 11 11 9 8 7 7 6 5 6 6 6 6 6 5 5 5 5 5 5 5 4 3 2 2 2
1 2 2 1 1 1 2 3 1 2 1 6 6 6 7 3 2 5 9 8 2 5 6 8 12 13 12 11 13 15 15 14 13 12 12 12 11 11 12 12 13 12 11 9 6 6 5 4 5 7 8 8 9 9 9 9 10 10 10 12 11 11 11 11 11 11 12 15 17 15 12 11 10 8 8 7 7 7 6 6 6 7 7 6 6 5 5 5 4 4 4 3 3 2 2 3 4
1 1 1 1 2 1 1 4 1 1 4 6 6 7 5 1 3 7 12 7 3 6 7 9 13 14 14 13 13 13 12 12 11 11 11 11 11 11 11 11 12 12 11 9 6 5 5 4 6 8 9 8 9 11 11 10 11 12 11 11 12 12 12 12 11 12 13 14 15 14 14 12 10 9 7 6 6 6 6 6 6 7 7 7 7 6 5 4 4 3 2 1 2 3 4 5 6
1 1 1 1 1 1 1 4 1 0 5 5 4 4 2 4 5 6 6 3 2 5 8 10 11 13 16 16 13 11 10 10 11 12 13 13 13 13 12 12 12 12 11 9 7 6 5 5 7 8 9 9 11 12 12 12 12 12 12 11 12 13 12 12 12 12 13 13 13 13 13 12 10 8 7 6 6 6 7 7 8 8 8 8 7 7 6 4 2 1 1 2 3 5 6 7 8
1 2 3 1 3 4 2 4 2 1 5 3 3 5 4 4 6 4 2 1 3 8 9 11 12 14 16 14 11 10 10 11 11 13 14 14 15 14 14 13 13 13 12 10 9 7 6 6 8 8 9 11 12 12 12 12 12 13 12 12 12 12 12 13 13 12 12 12 12 11 11 10 9 8 8 7 8 8 8 9 9 8 8 7 7 6 5 3 2 1 2 3 4 5 6 7 8
1 2 2 0 3 6 5 5 5 5 4 2 4 6 2 2 4 5 4 2 7 10 11 12 12 13 12 10 10 10 10 11 11 12 12 12 14 14 13 13 13 13 13 12 10 8 7 7 8 9 10 13 13 12 13 13 13 14 14 13 13 12 12 12 12 12 12 12 11 10 9 9 9 8 9 9 9 9 9 9 9 7 6 6 5 5 3 2 1 2 3 3 4 5 6 6 7
1 4 1 2 3 6 7 6 7 5 2 1 6 5 1 2 4 3 2 4 9 10 11 12 11 11 10 9 9 9 9 10 12 12 12 12 13 13 13 13 13 13 13 12 11 10 8 8 9 10 11 13 13 13 14 14 14 14 14 13 12 12 12 11 11 10 10 10 9 9 9 8 9 9 9 10 10 10 9 8 7 6 5 5 4 3 2 2 3 3 4 5 6 7 6 6 6
5 6 4 3 5 5 5 8 6 4 3 4 5 4 3 2 3 2 2 5 10 12 11 11 11 11 9 9 8 9 9 10 13 13 12 13 13 14 15 14 14 14 13 13 12 11 10 10 10 11 12 12 13 14 15 15 15 14 13 12 11 11 11 10 9 9 9 8 8 8 8 9 9 10 10 10 9 8 7 6 5 5 5 4 4 3 3 3 4 5 6 7 8 8 7 6 7
6 6 6 8 8 6 6 8 3 3 4 6 5 5 5 3 1 3 5 8 12 13 12 11 11 9 9 9 7 8 9 11 14 14 13 14 15 16 16 16 16 15 14 14 13 12 11 11 12 12 12 13 14 15 15 15 14 13 12 11 10 10 9 9 8 9 8 7 7 8 8 9 9 10 10 9 8 7 6 5 4 4 4 4 4 5 4 5 5 6 7 7 8 8 7 7 8
4 2 5 7 8 7 6 4 1 1 3 4 6 5 5 2 2 4 7 9 11 12 11 11 10 9 8 8 6 6 7 11 14 14 15 16 17 17 18 18 18 17 15 15 14 13 12 12 12 13 13 14 15 15 14 13 12 11 11 9 8 8 8 8 8 8 8 7 8 8 8 9 9 9 8 7 6 6 5 4 3 3 4 4 4 5 5 5 5 6 7 8 8 8 8 8 8
3 1 3 5 5 5 4 3 1 4 3 4 4 3 3 3 2 4 7 9 12 11 9 10 8 8 7 7 6 5 7 10 13 15 16 16 16 17 17 17 18 18 17 16 15 13 13 13 13 13 14 15 15 15 13 12 11 10 9 8 7 7 8 8 7 7 7 8 8 9 9 9 8 7 6 5 5 4 3 2 2 3 3 3 3 5 5 5 5 6 7 8 8 8 9 8 8
2 1 1 2 3 3 2 2 3 4 2 4 3 3 4 3 2 5 6 10 14 11 9 9 8 8 7 7 7 6 7 10 13 15 16 17 17 17 17 17 17 18 18 17 16 14 13 13 14 14 15 16 16 14 13 12 10 9 7 6 7 7 8 8 8 8 7 8 8 9 9 8 7 6 4 4 3 2 1 1 1 2 2 2 3 4 4 4 5 6 8 8 8 8 8 8 8
1 0 1 2 2 3 0 1 1 2 1 2 2 2 2 2 4 5 5 10 12 12 10 9 9 9 8 7 7 6 6 10 13 15 16 18 18 18 19 19 18 19 19 18 16 15 14 13 14 15 15 16 16 15 13 11 9 8 7 6 7 8 8 8 8 8 7 7 8 8 8 6 5 4 3 2 1 1 1 1 0 1 2 3 4 4 4 4 6 7 7 8 8 8 8 7 7
3 2 1 1 3 4 2 1 2 2 4 2 2 2 2 2 5 5 5 9 10 10 10 9 9 9 8 7 6 6 5 7 9 12 17 18 19 20 20 20 20 20 20 18 18 17 15 14 15 16 16 17 16 15 13 11 9 8 8 7 7 8 8 8 8 8 8 7 7 7 6 5 4 3 2 1 2 2 2 2 1 2 2 3 3 3 4 5 6 7 6 7 8 9 8 7 7
2 2 2 1 2 3 2 2 0 3 4 1 2 2 0 1 6 7 6 9 9 9 9 9 9 8 8 7 6 6 5 6 7 12 18 20 20 20 21 21 21 21 20 19 18 17 17 16 16 16 16 17 16 14 12 11 10 9 9 8 8 8 8 8 8 8 8 7 7 6 5 4 3 3 2 2 3 3 3 3 2 2 2 2 3 4 4 5 6 7 6 6 7 8 7 7 7
4 3 3 2 2 1 2 2 2 4 4 2 2 2 1 0 6 8 6 8 9 9 9 9 8 7 7 7 6 6 6 7 9 15 20 21 20 20 21 21 21 21 21 20 18 17 17 17 17 16 16 16 15 14 13 12 11 11 10 9 9 9 9 9 8 8 7 6 6 6 5 4 4 3 2 2 2 3 3 3 2 1 2 2 3 4 4 5 5 5 6 5 6 6 5 6 7
7 3 4 5 4 1 1 2 2 2 3 4 3 2 2 3 8 9 7 7 8 8 7 6 6 6 6 6 6 6 7 8 11 17 20 21 21 21 22 22 22 22 21 21 20 18 18 18 18 17 17 16 15 14 14 14 13 12 12 11 11 11 11 10 10 9 8 7 6 5 5 4 4 3 2 2 2 3 3 3 2 2 2 3 4 4 4 4 4 4 6 6 5 3 3 5 6
8 5 4 4 3 2 1 3 4 2 0 2 2 2 3 4 7 7 6 6 7 6 6 6 6 6 6 7 7 7 7 8 12 17 19 21 21 21 22 22 22 22 21 22 21 20 20 19 19 18 18 17 16 16 17 16 16 15 14 14 13 13 12 12 11 10 9 8 6 5 5 5 4 3 3 3 3 3 3 3 3 3 3 4 3 3 3 3 4 5 6 6 4 2 2 5 6
6 5 5 3 2 2 2 3 6 3 0 2 2 4 3 2 3 3 4 7 8 8 8 8 8 7 7 8 9 8 6 5 9 13 16 19 20 21 22 22 23 23 23 24 23 22 21 20 20 19 18 18 18 18 18 18 17 17 16 16 15 13 13 13 12 10 9 8 7 6 5 5 5 5 5 5 5 5 4 5 4 4 4 4 2 2 2 3 4 5 5 5 3 2 3 6 5
5 4 5 3 1 3 3 2 3 1 1 1 2 4 3 2 1 1 2 5 6 6 8 8 9 8 7 8 9 8 6 6 8 10 15 19 20 21 22 22 24 24 25 25 25 23 22 21 20 19 19 19 19 19 18 18 17 16 15 14 14 13 13 14 12 11 10 9 8 8 8 8 8 7 7 6 6 6 6 6 5 4 4 4 3 2 3 3 3 4 5 5 3 2 3 6 5
4 4 4 3 4 4 1 2 2 2 2 2 3 3 1 2 2 3 2 2 2 3 5 6 7 9 9 10 9 9 8 8 9 10 12 17 19 21 22 22 23 23 23 25 25 25 23 23 21 20 20 20 20 19 18 17 16 15 14 13 12 12 12 13 13 12 11 10 10 10 11 11 11 10 9 8 7 7 7 6 6 5 5 5 4 4 4 3 4 5 4 4 3 3 3 5 5
2 5 5 4 8 4 3 4 4 3 3 2 4 3 2 2 4 5 3 2 2 2 4 5 6 8 9 8 8 8 9 9 10 11 11 15 19 21 23 23 23 23 24 27 28 27 25 24 23 21 21 21 20 19 18 17 16 15 14 13 13 13 13 13 14 14 13 13 12 11 11 11 12 12 11 9 8 7 7 7 7 6 6 6 5 5 4 4 5 4 3 3 4 3 2 4 4
2 5 7 8 10 6 7 9 6 2 1 2 3 2 3 4 6 8 4 3 5 3 5 7 7 7 7 7 8 8 8 8 9 11 12 16 19 22 22 23 23 24 26 29 30 29 28 26 24 23 22 21 21 20 19 18 17 17 17 16 16 16 16 15 15 15 14 14 13 11 10 11 11 12 12 10 9 8 7 7 7 7 7 6 6 5 4 5 5 4 2 2 3 3 2 2 3
2 4 8 9 9 9 11 12 6 2 3 2 3 3 2 3 7 11 7 6 9 6 6 8 7 7 7 8 9 8 8 8 8 10 12 16 19 20 21 23 25 26 27 28 29 28 28 27 26 25 24 23 21 20 19 19 19 19 18 18 17 17 18 17 16 15 15 14 13 12 11 11 12 13 13 13 11 9 8 7 7 7 7 6 6 5 5 5 5 4 3 2 3 3 2 1 1
3 5 10 12 10 11 12 9 4 2 2 1 2 2 1 3 6 10 9 7 9 9 9 8 7 7 9 9 10 9 10 9 9 10 11 14 19 22 23 26 28 28 27 27 27 28 28 28 27 26 25 24 22 21 20 20 21 21 20 19 18 18 18 16 15 15 15 15 15 14 12 12 12 13 14 14 13 11 9 8 7 7 7 7 6 6 5 5 4 4 3 2 3 3 2 2 1
3 2 9 10 9 8 6 4 3 3 3 1 3 3 1 4 4 5 10 10 11 14 13 11 9 9 9 10 10 10 10 10 10 11 12 15 20 24 26 28 29 28 27 28 29 29 29 29 28 27 27 26 24 22 21 22 22 21 20 19 19 19 18 16 15 15 16 16 17 16 15 13 12 12 13 13 13 12 9 8 8 7 7 7 6 6 5 5 5 5 3 3 4 3 2 2 2
3 10 12 9 10 10 7 4 3 3 2 1 5 6 3 3 3 3 7 10 14 15 13 11 10 9 10 10 10 10 9 9 10 11 14 19 23 26 27 27 27 27 28 29 29 28 29 29 29 29 28 27 26 23 22 23 23 22 21 20 20 20 20 19 18 17 17 17 17 17 16 15 13 12 12 12 13 12 9 8 8 8 8 7 7 6 6 5 5 5 4 4 4 3 3 2 2
10 13 12 10 9 6 5 3 3 3 2 2 7 10 4 3 3 5 8 12 17 15 10 9 10 9 10 9 9 10 9 9 9 9 13 19 23 24 24 24 25 26 26 27 27 28 28 29 30 30 29 28 27 25 23 24 25 24 22 20 20 21 21 20 20 19 18 18 18 18 17 15 14 13 12 13 13 12 10 9 9 8 8 8 8 7 7 6 6 6 6 5 4 4 4 4 2
9 7 7 7 5 4 3 3 3 1 4 3 5 10 6 4 5 4 7 10 11 11 12 14 15 12 11 10 9 9 9 10 10 9 10 14 15 17 20 22 23 23 24 25 27 28 29 30 30 31 30 29 28 27 25 25 25 26 24 21 19 20 20 20 20 20 19 19 19 18 17 16 15 14 13 15 15 13 11 10 9 8 8 9 8 8 7 6 7 7 6 6 6 5 5 5 4
5 7 6 5 3 2 1 1 0 2 4 3 4 8 6 7 7 5 8 9 7 8 12 16 18 15 12 10 9 8 8 10 10 10 9 9 11 15 19 20 21 23 25 27 28 28 29 30 31 31 32 31 30 29 28 27 27 27 25 24 21 19 20 20 20 20 20 19 19 18 17 16 16 15 15 16 16 14 12 11 10 9 8 8 9 8 8 7 7 7 6 7 7 6 6 6 6
6 8 5 4 4 2 1 2 1 2 4 2 6 8 3 4 5 7 9 11 10 10 11 13 16 16 13 11 10 8 8 10 10 10 10 9 12 17 20 21 23 24 26 27 28 29 29 30 31 32 32 32 32 31 30 29 29 29 27 26 23 20 20 20 20 21 21 20 19 19 18 17 16 16 15 16 16 14 12 11 11 10 9 9 9 9 8 7 7 7 6 7 7 8 7 7 7
5 4 4 5 5 4 3 4 2 2 1 1 5 5 3 2 2 5 6 7 7 8 10 10 11 13 12 10 9 8 8 9 9 10 10 11 16 20 20 22 24 25 26 27 27 28 29 29 31 32 32 32 32 32 31 30 30 30 29 27 25 21 20 20 20 21 21 20 19 19 18 17 17 16 15 15 15 14 13 12 11 11 10 9 10 10 8 7 7 7 7 7 8 9 8 8 7
3 1 3 2 4 5 3 3 4 4 2 2 3 3 3 4 3 5 4 5 5 4 8 8 8 10 11 10 10 9 8 8 9 10 10 13 18 21 21 23 24 25 26 26 27 28 29 29 31 32 32 32 32 32 31 30 29 30 30 29 26 23 21 20 20 20 21 20 19 19 18 18 17 16 15 14 15 15 14 13 12 12 11 10 11 11 9 8 8 8 8 8 8 9 9 8 8
2 1 3 4 3 6 5 1 2 4 2 1 2 3 4 2 2 6 8 8 8 3 5 7 8 10 11 11 11 10 9 9 10 10 10 13 17 20 22 23 24 24 25 26 28 30 31 31 31 31 31 31 32 32 32 30 28 29 31 30 28 24 22 22 21 20 20 19 19 18 17 17 17 16 16 15 15 15 15 14 13 12 12 11 11 12 11 9 9 9 9 9 9 9 9 9 9
5 3 5 3 1 4 5 3 3 3 1 3 2 3 4 2 0 7 12 11 10 7 1 4 6 8 11 11 11 11 10 9 10 11 11 13 17 20 22 24 25 26 28 29 31 31 31 31 31 31 31 31 32 32 32 30 29 29 31 31 29 25 23 22 21 20 19 19 19 18 17 17 16 16 15 15 15 15 14 14 14 13 13 12 12 12 12 11 11 11 11 11 10 10 10 10 10
4 5 4 3 2 0 2 3 2 2 1 3 3 3 2 0 2 8 12 12 11 9 5 2 6 8 9 9 9 10 10 9 9 10 9 11 16 21 23 25 26 27 29 30 31 31 30 30 30 31 31 32 32 32 31 30 29 29 31 32 30 26 24 23 22 20 19 19 19 18 17 17 16 15 15 15 15 15 15 15 15 15 14 13 13 13 13 13 13 12 12 12 12 12 12 11 11
3 2 2 2 2 4 2 2 3 3 2 2 3 3 0 1 4 8 10 12 12 10 7 4 5 7 7 7 7 7 8 8 8 9 9 10 16 22 24 25 26 27 28 29 29 29 29 30 30 30 30 30 30 30 31 30 30 29 30 30 30 27 25 24 22 21 21 20 19 18 18 17 17 16 16 15 15 15 16 15 15 15 15 15 14 14 14 14 14 14 13 13 12 12 12 12 11
2 2 1 1 1 2 2 1 1 4 3 2 1 2 1 1 4 7 9 11 11 9 7 5 3 5 6 6 6 6 6 6 6 7 8 9 14 19 21 23 23 23 24 25 26 27 28 29 29 30 29 28 29 30 30 29 29 29 29 30 29 28 27 25 24 23 22 21 20 18 17 16 16 17 17 17 16 16 16 16 16 16 16 16 16 15 15 15 15 15 14 13 12 12 13 13 11
4 2 1 2 2 3 3 1 2 2 3 3 3 2 2 2 4 6 8 8 9 9 4 2 2 1 3 2 2 4 6 6 5 6 7 8 12 17 19 20 20 20 21 23 24 25 25 26 28 30 29 28 29 29 30 30 29 29 29 29 29 28 27 26 25 25 24 23 21 19 17 16 16 17 17 17 17 16 16 16 17 17 17 17 17 16 15 15 15 15 15 14 13 13 13 13 12
Wind_Direction
134 134 134 131 134 134 114 44 68 3 75 83 3 353 339 130 137 97 103 128 129 167 188 122 137 138 123 143 155 156 106 141 160 134 190 201 153 158 159 155 157 157 151 146 148 146 144 140 130 127 139 147 133 121 118 115 114 113 112 114 112 112 115 119 121 120 122 123 121 119 118 118 116 115 115 115 115 115 114 114 115 114 113 110 108 113 114 111 109 104 101 99 96 93 93 91 89
125 136 137 135 142 128 111 55 80 25 71 88 332 186 299 24 110 141 156 160 144 134 109 113 112 67 56 119 127 108 57 26 103 121 122 139 144 154 156 155 156 154 150 150 151 146 144 142 134 140 146 142 132 127 124 121 121 118 115 114 116 117 116 120 123 124 127 129 126 123 121 120 118 116 115 117 116 113 113 114 116 115 113 111 112 114 113 111 109 107 106 102 98 95 92 91 89
112 134 150 150 126 107 84 47 97 92 89 111 298 281 201 124 159 169 165 169 131 119 106 110 95 71 52 62 68 63 67 9 76 99 121 142 145 152 154 155 155 151 148 150 152 150 147 142 142 151 151 147 143 135 128 126 125 121 121 123 126 125 121 123 125 127 131 131 126 123 123 122 120 117 117 120 118 112 112 114 115 112 109 111 112 110 108 107 107 109 109 103 99 95 91 91 91
122 182 174 156 76 18 50 57 121 110 115 143 146 282 198 163 163 105 64 130 128 120 120 124 89 36 95 83 56 67 91 30 102 116 139 158 155 150 153 154 153 150 148 152 154 151 150 150 151 156 159 160 152 140 133 131 129 127 130 129 126 125 123 126 128 130 132 129 126 123 123 124 121 118 119 125 121 115 115 117 115 112 111 112 110 107 107 106 108 110 106 102 100 95 90 90 92
128 157 155 148 74 322 67 82 95 93 144 166 148 239 213 160 120 91 70 101 121 123 126 121 83 19 89 97 88 110 120 89 127 139 137 157 152 148 151 152 152 148 149 153 152 153 155 158 160 164 167 160 148 137 135 137 136 133 136 124 111 113 118 125 129 131 134 131 125 121 122 126 124 120 122 127 120 113 117 119 116 113 112 112 112 111 110 110 110 105 99 100 100 95 89 88 91
113 113 132 149 92 196 69 81 94 76 178 166 145 186 149 133 122 112 102 88 82 101 104 87 101 99 78 46 62 120 176 119 135 151 136 144 148 148 149 151 150 145 147 148 147 152 156 161 162 161 162 151 141 140 144 149 144 135 134 129 128 138 134 130 130 127 131 131 122 119 126 130 127 127 128 124 114 109 114 118 117 115 113 114 114 112 111 110 105 98 95 96 95 92 89 88 89
136 97 87 78 85 189 79 96 122 79 216 162 136 147 144 146 137 120 115 108 62 54 78 90 112 106 78 34 69 42 131 127 128 147 144 142 145 146 148 152 148 141 143 143 143 149 150 153 156 155 158 146 145 152 153 155 154 145 134 135 147 155 145 138 133 123 127 131 119 118 129 133 131 131 128 120 113 113 116 118 118 118 116 116 116 113 112 107 99 96 94 92 92 90 89 90 90
76 64 213 89 63 13 81 87 88 105 239 141 97 140 160 158 146 121 115 113 111 78 87 114 108 95 3 13 75 19 72 112 129 140 143 139 142 145 150 152 144 139 140 140 140 141 137 141 152 156 153 146 154 155 158 170 169 147 133 150 162 160 151 142 133 130 144 143 122 124 137 135 132 129 126 120 116 117 120 119 120 121 118 116 115 114 108 101 96 95 93 92 91 89 89 90 90
51 36 263 77 82 56 79 58 50 102 47 46 76 126 153 152 139 114 107 82 112 102 74 115 95 104 68 38 78 8 71 111 128 132 137 138 143 147 151 149 139 138 137 138 134 129 134 142 147 149 149 152 156 149 164 182 170 141 142 172 169 158 158 147 132 136 158 144 122 131 140 134 131 126 125 121 119 119 119 119 119 121 118 114 112 109 101 99 97 94 93 93 92 90 89 88 88
34 11 77 61 84 90 93 55 62 104 60 59 97 135 153 154 110 97 109 101 103 86 71 80 74 107 122 63 49 16 103 122 124 125 134 140 146 148 148 142 136 135 135 135 130 133 144 137 137 152 160 161 157 150 168 180 157 141 156 178 169 158 161 150 135 139 156 141 125 134 139 134 131 126 125 123 123 122 121 120 120 121 119 113 110 106 101 99 98 97 96 95 94 93 92 87 85
22 349 59 74 77 110 128 112 107 104 72 78 89 141 167 145 107 87 100 99 77 93 106 81 85 114 99 64 11 103 122 124 122 126 138 145 149 148 141 135 132 132 133 134 135 147 148 140 152 167 166 161 162 162 170 169 149 153 167 172 169 168 164 150 138 144 155 143 133 137 139 137 134 130 126 123 125 124 123 121 122 122 118 114 110 106 102 99 98 99 100 99 97 94 93 87 80
47 341 30 85 74 120 138 127 122 98 80 105 129 231 156 138 119 117 111 107 104 109 119 95 135 145 80 46 36 122 125 119 125 134 144 149 149 145 136 130 130 132 133 136 145 157 152 152 164 166 166 164 158 163 169 162 153 160 167 165 169 176 166 147 139 151 159 143 136 139 140 141 139 133 127 125 126 123 122 121 120 120 117 114 110 106 104 103 102 98 99 101 96 92 91 88 82
80 321 59 82 327 94 117 122 134 105 92 124 175 190 132 138 137 134 115 104 110 114 124 127 143 118 77 72 95 135 128 122 134 139 147 150 147 144 135 131 131 133 131 141 161 165 156 159 167 159 158 169 163 156 162 163 162 162 162 162 169 178 167 146 137 149 159 144 137 139 141 144 141 132 128 129 126 123 122 118 116 115 117 113 108 108 109 111 109 99 97 98 94 92 90 91 90
107 195 92 102 301 88 116 125 153 126 121 204 162 148 131 126 153 139 118 106 81 115 123 121 121 90 93 128 122 172 133 131 141 142 147 146 145 141 134 133 131 131 131 151 174 168 152 151 168 154 139 159 176 168 157 160 165 163 161 164 172 178 164 144 136 142 153 150 141 137 139 144 139 129 126 128 123 121 121 118 116 115 114 112 108 109 110 112 111 106 102 99 96 95 93 94 95
124 169 84 107 87 88 144 143 152 135 149 197 135 139 105 34 119 120 115 114 99 133 110 105 100 84 149 172 159 181 136 136 142 141 141 136 136 134 131 132 128 129 133 155 175 160 139 140 152 137 124 142 174 184 165 156 165 169 166 169 172 173 161 140 133 137 146 153 143 135 139 142 135 125 124 124 119 118 120 118 117 116 113 110 110 110 110 112 115 115 110 105 100 95 94 96 96
129 114 62 85 119 131 191 160 128 122 146 164 137 124 87 47 72 85 25 98 124 125 92 109 324 119 161 166 138 139 134 137 139 137 134 127 127 127 128 128 126 129 136 153 163 142 126 128 122 107 108 123 162 194 168 151 161 174 169 164 160 160 153 133 131 136 142 147 141 136 144 145 132 125 122 115 111 116 119 117 116 115 112 112 113 114 116 117 120 120 116 112 103 96 97 101 102
65 62 60 78 142 153 207 145 119 134 131 130 148 131 111 110 54 78 32 62 114 109 70 83 15 94 133 126 128 132 134 136 136 134 128 125 126 125 126 126 126 129 137 152 150 135 128 125 110 101 105 119 148 170 151 148 155 163 157 146 143 149 145 132 132 134 135 138 141 142 150 144 130 125 119 108 107 115 118 118 119 118 116 119 120 123 123 121 121 120 121 117 110 110 111 111 111
54 63 84 124 162 175 236 147 164 249 134 143 165 141 128 138 122 105 70 59 89 85 71 76 54 69 100 117 128 131 134 136 137 135 128 127 129 125 125 129 130 132 140 151 150 140 135 127 112 108 111 118 133 139 140 147 153 150 141 136 142 148 139 132 130 126 131 137 141 144 146 136 126 123 114 106 107 114 121 126 128 128 128 129 129 129 125 118 117 117 119 124 130 129 124 117 116
99 88 93 210 182 174 231 114 39 308 137 132 146 141 132 144 143 123 108 106 109 96 84 86 83 87 102 117 126 131 136 137 141 139 134 135 137 135 133 136 135 136 145 154 159 152 141 131 122 121 118 120 130 138 145 150 149 140 130 133 142 143 135 131 125 123 133 135 134 137 142 134 120 112 104 104 112 116 121 129 135 140 138 132 127 125 118 116 119 125 130 140 147 138 137 143 151
147 108 139 245 177 164 196 103 28 275 155 119 127 133 120 144 145 112 123 123 116 125 132 118 118 125 122 125 129 134 137 139 144 141 139 141 142 144 142 145 144 146 154 160 167 158 150 142 130 127 125 127 131 135 142 144 143 136 128 131 137 138 135 129 127 131 133 128 129 134 135 125 108 103 107 117 126 124 123 127 136 136 129 121 114 110 107 112 124 137 144 150 157 157 174 208 255
155 134 195 246 121 242 171 131 242 300 102 122 123 112 113 141 98 115 133 120 129 184 177 152 147 146 138 139 137 139 140 140 145 144 144 144 145 147 147 150 150 154 158 161 174 163 150 147 134 128 130 132 132 135 134 136 143 143 136 134 135 136 135 134 133 134 129 128 133 134 128 121 114 118 128 135 134 131 131 131 127 119 110 104 99 95 95 107 124 139 149 157 173 201 234 262 280
110 141 151 104 139 239 150 137 207 342 109 107 105 116 137 133 83 146 149 140 197 193 177 158 150 150 145 144 143 143 144 144 149 151 152 150 149 150 151 152 151 157 161 164 178 170 154 152 141 132 138 140 135 136 133 135 145 149 144 138 136 133 134 135 133 131 130 132 136 135 133 133 136 140 142 144 138 129 130 124 111 104 98 95 91 88 92 105 124 136 154 185 247 267 275 281 289
116 135 130 125 174 256 193 145 174 203 121 103 106 129 121 92 122 172 158 133 184 143 142 146 143 145 142 141 144 147 150 153 158 162 161 157 156 158 158 156 156 162 167 169 179 179 166 162 152 142 148 147 139 141 141 142 145 144 140 137 136 132 133 134 132 132 132 134 137 137 138 141 145 148 148 145 133 126 125 116 106 101 96 93 88 87 92 101 115 138 231 280 291 290 289 288 289
110 141 162 203 232 208 189 148 152 91 106 113 124 104 65 93 131 171 193 1 116 123 129 134 135 138 139 141 148 153 157 161 165 168 167 164 164 165 163 160 162 168 170 174 181 183 176 170 163 150 148 147 146 148 148 146 142 139 137 138 139 135 135 135 135 137 137 139 141 142 144 146 147 146 141 133 128 127 123 116 110 104 98 91 84 82 82 85 81 351 312 307 304 303 301 296 294
172 130 147 275 237 182 152 125 124 99 99 122 96 87 79 119 127 152 199 176 122 125 128 131 135 138 144 148 152 157 159 163 163 165 168 168 165 164 164 162 166 172 171 174 180 182 178 174 168 156 149 149 151 151 148 147 144 142 142 144 143 142 142 139 138 141 143 146 145 145 145 144 143 140 134 129 128 127 122 118 112 105 95 83 75 68 64 60 24 340 330 325 326 324 321 314 305
168 95 74 214 178 149 138 114 116 114 84 79 88 76 314 122 110 124 180 167 133 126 132 138 141 144 152 154 158 162 161 163 162 163 165 165 165 165 166 166 171 177 175 174 178 180 176 173 169 158 153 154 153 151 149 149 148 146 145 145 145 147 147 142 141 144 145 146 145 145 143 141 140 137 133 130 128 124 119 113 104 93 79 66 59 48 26 4 347 346 349 350 349 346 345 343 333
105 91 61 94 105 106 111 101 116 129 45 1 93 87 330 48 110 127 167 175 140 129 139 146 146 151 157 157 164 168 167 169 164 159 155 158 166 169 170 171 175 180 179 176 179 180 174 170 168 160 157 158 156 152 151 152 151 149 148 148 148 150 149 146 146 148 148 147 147 145 142 143 142 137 133 128 125 119 111 99 88 80 66 51 35 16 355 350 352 356 356 353 350 348 348 344 339
108 111 74 74 80 60 66 91 131 152 63 1 63 67 340 25 137 190 174 169 145 137 147 153 154 156 160 162 166 172 175 171 163 159 159 165 173 174 176 177 177 183 185 182 184 181 173 171 168 164 163 161 158 155 153 154 155 155 156 154 153 155 155 155 154 154 154 152 151 149 146 147 142 137 132 128 123 115 105 95 85 75 55 34 18 7 354 349 354 356 351 347 344 343 339 331 328
117 123 87 92 83 54 34 55 268 133 72 12 63 58 334 351 260 205 163 157 145 140 148 155 161 159 161 168 165 176 181 169 166 171 173 174 177 178 181 182 180 184 188 187 188 184 176 173 169 167 168 167 162 159 158 158 160 162 163 161 162 168 168 165 162 159 159 156 152 149 149 149 144 138 134 129 124 115 107 98 82 61 36 19 10 3 352 343 346 346 340 340 338 335 332 328 326
101 22 93 110 84 58 352 329 88 86 45 1 72 108 277 297 269 175 153 148 141 140 152 156 163 162 164 172 170 181 183 172 176 182 180 177 179 182 183 184 184 184 187 188 190 188 180 176 173 170 170 171 168 165 165 164 165 166 167 167 169 174 172 166 162 159 159 156 153 151 150 150 147 142 135 128 122 115 111 101 77 46 22 6 358 352 347 337 338 339 334 332 330 328 328 328 330
100 1 47 99 100 105 324 319 97 97 20 344 48 142 228 261 172 155 154 149 147 152 160 159 164 167 168 175 176 181 190 189 188 184 182 180 180 184 184 183 185 186 186 188 192 191 184 182 179 176 173 174 173 171 170 169 169 169 168 169 165 166 165 159 155 155 156 156 155 154 152 150 148 141 131 128 126 124 127 110 67 29 6 350 341 341 342 336 336 336 330 327 326 326 326 326 329
49 70 3 355 94 116 248 312 52 100 109 4 32 145 214 227 170 163 156 153 156 160 163 166 168 171 173 178 179 182 197 200 193 183 181 181 180 184 186 184 185 188 188 188 191 192 190 188 186 184 180 177 176 174 174 174 173 171 168 165 162 163 160 154 151 150 153 159 160 158 154 150 148 142 138 148 176 216 246 250 1 348 337 336 334 340 346 339 335 331 329 328 327 326 325 323 326
352 66 85 335 107 127 164 118 9 89 118 58 34 154 176 182 167 159 156 159 160 162 168 174 173 177 178 179 182 181 189 199 197 185 180 180 183 185 187 187 187 189 191 189 188 191 193 192 191 191 186 181 179 177 178 177 172 168 163 161 163 161 158 155 153 153 155 160 164 163 161 160 162 167 182 224 249 251 258 259 269 294 311 332 340 344 338 330 327 325 327 329 327 328 329 324 323
313 63 82 292 117 124 143 114 85 132 130 88 61 119 214 185 157 153 161 162 160 168 176 181 182 185 184 182 181 177 180 191 198 190 182 181 183 186 187 189 190 190 193 191 189 191 193 193 194 194 190 187 185 182 180 174 168 164 162 165 166 163 161 159 158 158 160 165 171 174 180 188 196 206 218 254 268 262 255 248 252 278 299 327 341 340 329 320 320 321 327 329 325 328 333 329 324
185 161 125 149 144 121 135 129 168 148 126 120 113 112 16 63 150 153 166 164 170 181 181 185 188 190 192 188 182 176 182 193 202 195 186 182 182 184 186 188 190 191 193 192 191 192 194 195 196 196 194 192 191 189 182 174 169 168 170 173 174 172 169 168 167 165 167 174 183 189 200 205 206 211 220 267 277 257 244 238 246 280 297 316 332 338 330 320 316 318 324 325 321 324 335 335 327
151 144 122 143 148 119 130 102 108 145 116 135 166 147 130 151 152 157 168 169 181 188 180 183 191 200 201 196 189 179 185 198 202 195 187 183 183 184 185 188 190 191 192 192 192 194 196 196 197 199 197 195 194 192 186 180 176 177 179 181 182 179 176 175 174 173 176 181 185 193 201 200 197 207 236 279 268 242 241 248 261 283 293 311 324 329 324 314 313 319 323 325 325 325 338 337 328
116 95 99 122 117 92 76 105 133 206 60 132 162 129 148 168 156 156 155 169 190 187 185 191 195 206 203 202 199 184 192 199 192 190 187 184 182 183 183 185 186 187 190 192 192 194 196 197 197 198 197 195 194 192 188 185 184 185 187 189 188 185 183 184 182 182 188 188 189 197 204 202 204 229 264 279 269 253 256 262 273 283 287 305 319 323 314 300 304 316 324 331 338 342 342 341 335
106 103 115 95 69 107 76 116 152 201 346 107 117 129 166 203 162 147 135 171 198 193 192 199 200 209 209 207 205 193 186 175 172 180 183 182 180 179 180 182 183 185 187 190 192 193 196 198 198 196 194 195 195 194 191 190 190 190 191 193 194 193 193 192 190 193 200 203 203 209 219 222 229 250 266 274 272 265 266 266 273 281 279 291 301 302 297 289 302 317 331 342 350 351 355 357 348
97 98 124 119 122 117 72 94 137 348 39 128 140 147 179 250 259 266 163 178 207 205 199 200 198 205 213 210 207 197 174 158 169 174 178 182 181 178 178 181 184 186 186 188 190 192 195 198 199 197 194 194 194 195 196 194 194 193 196 199 199 201 201 199 200 204 210 214 216 222 233 239 246 254 258 263 267 266 269 267 267 272 270 273 281 285 279 282 310 328 339 351 358 353 7 8 354
109 122 135 158 186 163 101 183 151 44 46 112 130 136 221 292 302 286 246 202 249 235 211 206 200 202 210 212 207 194 180 171 174 174 176 179 179 179 180 181 184 185 185 187 188 190 194 197 199 199 197 195 193 194 196 196 196 195 198 201 201 204 205 204 208 211 214 218 222 229 237 243 248 249 247 252 262 264 266 266 263 267 268 266 276 288 282 289 319 331 336 353 2 353 11 20 12
164 166 160 173 194 178 93 149 141 55 26 53 107 85 303 229 221 252 258 257 268 259 218 209 211 212 211 214 213 200 189 179 173 175 175 174 178 184 184 183 182 184 186 188 189 189 193 196 197 199 198 196 195 194 194 195 197 197 199 203 205 209 212 213 216 218 220 223 226 230 235 242 244 242 239 243 254 258 261 264 261 265 270 267 274 285 287 297 313 324 340 4 11 4 12 33 39
283 210 190 182 184 149 105 135 136 94 246 246 143 137 267 211 208 227 224 233 238 231 217 213 210 212 207 205 212 205 192 185 178 176 174 175 180 184 185 184 183 186 190 191 191 191 192 195 196 198 199 198 197 196 195 196 198 199 203 208 209 211 215 219 221 222 222 224 225 227 233 239 237 233 232 237 247 252 256 261 261 265 268 266 272 276 283 297 301 305 320 357 10 9 2 34 66
300 229 175 164 162 132 133 149 143 155 196 233 188 181 263 232 219 219 201 211 228 222 220 219 206 201 203 201 203 199 190 188 183 179 177 177 179 180 184 187 187 191 193 192 193 193 193 194 196 198 199 199 199 199 201 202 203 204 207 213 216 217 220 222 224 224 224 225 224 225 231 234 230 228 229 234 243 246 249 254 257 260 259 259 265 266 276 294 295 289 287 326 0 9 7 20 81
257 231 153 151 155 145 152 152 127 129 118 46 196 159 354 276 235 212 191 203 228 229 227 224 207 200 204 202 199 196 190 185 181 181 181 180 180 181 184 189 193 194 193 191 192 194 194 194 195 197 198 199 200 203 207 210 211 210 211 214 219 222 224 224 222 222 224 226 225 225 227 228 228 228 229 233 238 239 241 244 247 251 251 254 259 261 274 293 292 278 270 304 336 345 0 17 46
252 192 131 139 133 121 125 114 81 80 75 39 215 174 190 275 269 201 185 201 226 228 223 219 208 200 203 203 198 196 192 186 183 182 183 184 184 186 187 190 194 194 193 192 193 195 196 195 195 196 198 200 203 206 211 215 216 214 213 215 218 221 223 223 221 221 223 224 225 224 224 226 227 228 230 232 232 232 234 238 244 250 252 255 257 260 270 287 288 273 270 307 320 318 323 348 18
118 99 88 80 76 70 64 56 43 59 64 212 197 189 212 270 266 174 171 203 225 225 218 216 212 201 202 204 197 193 191 187 187 185 185 187 188 190 189 189 191 193 195 195 194 195 196 196 196 197 200 202 205 209 213 216 216 214 215 216 217 217 218 221 221 221 222 222 223 223 224 225 226 228 229 228 225 225 231 239 246 252 256 258 257 260 268 281 287 273 274 303 312 305 302 318 350
112 96 84 70 58 43 41 39 41 50 295 237 182 187 205 302 257 184 180 206 216 213 205 208 216 210 202 201 196 190 187 186 187 187 189 192 191 189 186 186 189 192 194 194 193 195 196 197 198 199 202 204 206 209 212 216 215 213 216 219 219 217 216 216 216 218 220 221 223 224 226 228 228 229 230 226 221 223 232 239 246 255 259 259 257 260 266 278 287 278 274 288 295 285 286 295 305
111 103 111 91 53 6 7 12 38 91 258 267 184 178 181 257 258 204 212 232 224 207 198 201 208 211 204 198 195 190 185 183 184 185 189 190 188 183 182 185 186 187 189 191 193 195 196 198 199 200 202 205 207 208 211 214 214 214 218 222 225 225 222 221 220 221 222 223 225 225 226 228 228 229 229 225 222 225 233 238 246 256 260 256 253 256 262 273 285 282 277 282 283 277 281 283 276
104 119 124 100 73 26 3 323 337 200 242 260 161 156 178 242 256 256 255 260 246 213 204 203 202 202 201 197 192 186 183 181 182 185 184 181 180 181 182 183 183 184 187 190 192 194 196 197 199 200 202 205 207 210 212 214 216 218 221 224 229 231 231 232 232 230 228 228 228 226 225 226 227 228 227 224 222 225 232 240 247 255 261 255 247 249 256 267 279 281 280 279 277 279 287 283 273
145 145 138 121 115 101 180 241 274 247 271 279 152 156 200 267 273 274 261 251 236 214 207 206 200 196 194 193 187 182 182 183 183 183 181 179 181 184 184 183 183 186 188 189 192 193 195 197 198 200 203 205 207 210 214 217 219 222 224 226 230 233 235 238 239 236 234 233 231 230 228 228 229 230 228 225 224 226 234 243 248 253 259 252 240 238 246 258 271 277 277 276 278 282 287 287 282
179 174 140 143 154 153 178 200 190 187 294 46 133 162 201 209 268 290 277 274 254 213 201 198 195 193 187 184 182 179 183 186 182 182 182 184 185 186 187 186 187 189 189 190 192 193 195 197 199 201 203 205 208 210 213 217 221 222 224 226 230 234 238 241 243 240 238 237 235 234 233 234 236 235 234 234 231 230 235 243 248 252 256 250 237 232 238 251 263 270 271 271 278 283 284 286 287
221 232 104 163 186 148 138 173 158 136 111 107 158 215 223 205 272 334 344 337 328 211 187 174 177 184 180 180 181 179 184 185 182 183 184 185 186 187 188 189 191 192 191 191 193 194 196 199 201 203 206 207 209 211 213 217 220 222 223 224 228 234 239 241 242 241 240 240 238 238 239 243 244 243 243 243 238 235 238 243 248 252 255 251 241 235 239 249 256 261 264 267 274 278 278 279 282
157 144 178 222 190 120 114 135 79 93 128 211 208 252 303 288 306 349 6 12 8 3 170 162 167 173 177 185 185 182 183 183 183 184 184 184 185 188 190 191 192 192 192 194 196 198 200 201 203 204 206 209 210 211 214 216 219 220 220 221 226 233 237 238 240 241 241 241 240 242 246 248 249 249 250 249 245 241 242 245 250 254 255 253 245 239 243 250 256 258 260 265 271 271 270 271 274
132 179 210 196 83 83 101 103 29 51 193 263 232 235 308 343 251 337 349 360 359 350 338 158 162 170 182 191 189 185 182 182 185 184 183 183 184 188 192 194 195 194 195 197 199 202 203 204 205 206 207 209 211 213 215 217 219 219 219 220 224 231 236 237 239 242 242 240 240 243 248 251 252 252 254 254 250 246 247 250 251 254 257 255 248 243 245 251 256 259 262 268 272 267 265 266 269
138 169 179 122 114 211 81 113 130 103 207 279 287 268 285 70 318 330 337 338 337 330 313 189 171 179 188 194 192 187 181 179 184 183 183 184 185 189 193 195 198 198 198 200 201 202 204 205 207 208 211 213 214 215 216 218 220 220 220 220 223 229 234 235 236 238 238 240 243 247 252 256 258 257 257 257 254 251 253 255 254 256 259 259 253 249 251 255 257 259 264 269 272 267 264 267 270
24 89 106 79 131 171 156 135 152 148 175 242 303 318 209 129 325 327 328 327 327 316 291 233 192 189 188 191 190 186 183 182 182 181 181 185 188 192 194 196 198 200 201 202 201 202 204 206 208 210 213 215 215 216 216 218 220 221 221 222 224 229 232 234 236 236 237 240 245 250 255 259 261 260 260 260 259 259 258 259 260 260 261 262 259 256 258 260 260 261 265 270 272 268 264 266 271
27 28 250 242 76 126 148 118 106 132 155 184 212 287 272 12 336 327 327 329 331 316 276 238 219 197 186 188 185 179 184 185 180 177 179 184 187 191 195 197 199 201 202 202 202 203 206 207 208 211 213 213 214 216 217 218 220 221 222 223 226 229 231 234 236 237 240 242 246 250 254 259 262 261 261 261 263 265 264 264 265 265 264 263 262 263 264 264 262 261 265 269 271 267 263 265 271
134 142 241 192 152 121 127 236 304 100 126 163 164 205 273 354 353 333 332 341 351 343 299 226 9 78 130 115 151 168 173 175 174 170 168 171 173 177 184 190 194 196 198 201 203 205 208 210 211 212 213 213 215 217 217 219 221 221 223 225 227 229 232 234 236 239 242 244 247 250 253 258 261 262 263 263 267 270 269 267 266 267 266 263 263 265 266 265 262 262 264 268 270 268 266 266 268
Height
778 780 780 781 780 781 783 784 796 798 800 817 816 812 805 795 796 800 804 803 803 802 796 798 799 800 804 806 807 807 808 811 814 821 823 812 807 809 809 810 812 813 814 814 815 815 816 818 819 821 822 823 823 824 824 825 825 825 825 825 825 826 827 828 829 829 830 831 832 832 833 834 835 836 836 837 837 837 837 838 838 839 839 839 840 840 840 841 842 843 846 846 845 845 845 845 845
779 780 779 781 780 783 787 786 801 806 808 823 817 811 804 795 797 801 804 801 800 798 795 797 798 800 801 800 802 806 808 808 808 810 811 809 810 811 811 812 813 814 815 816 816 817 818 819 821 822 823 824 825 825 826 826 827 827 827 827 827 827 828 829 830 831 831 832 833 833 834 835 836 837 838 838 838 838 839 839 840 840 841 841 842 843 843 844 844 845 847 847 846 846 846 846 846
780 780 780 781 781 783 787 789 803 811 816 825 817 806 801 799 799 800 799 797 794 793 796 798 799 801 803 805 805 809 811 808 806 807 809 810 811 812 813 814 815 816 816 817 818 818 820 821 822 823 824 825 826 827 827 828 828 828 828 829 829 829 830 830 831 832 832 833 834 835 835 836 837 838 839 839 839 839 840 841 841 842 843 843 844 845 846 847 846 846 847 847 847 847 847 847 847
780 781 780 781 784 787 791 796 803 811 820 824 818 805 799 801 799 800 798 795 793 792 796 799 803 801 802 810 808 809 812 808 807 807 809 810 811 812 814 816 817 818 819 819 819 820 821 821 822 824 825 826 827 828 828 829 829 830 830 831 831 831 832 832 833 833 834 835 836 837 837 838 838 840 840 839 840 840 841 842 843 844 845 844 845 847 848 849 849 848 848 847 848 848 848 848 848
780 781 781 781 788 792 793 801 803 809 816 815 815 806 799 801 799 801 798 796 794 794 797 799 806 802 801 808 807 811 811 809 808 806 809 811 812 813 815 817 818 819 821 821 821 822 822 823 824 825 826 827 828 828 829 830 831 831 832 832 833 834 834 834 835 834 835 835 837 839 839 840 840 841 841 840 841 841 842 843 844 845 845 846 847 848 849 850 850 849 848 848 849 849 849 849 850
780 780 780 780 786 788 795 805 806 809 808 804 807 804 800 800 799 799 798 797 794 794 795 798 805 805 808 807 805 809 808 808 808 807 809 811 812 814 816 817 819 821 822 823 824 824 825 825 826 827 827 828 829 830 831 831 832 833 833 833 833 834 834 836 837 837 837 837 839 841 841 841 841 842 842 841 842 843 844 844 845 846 847 848 848 849 850 851 850 849 849 849 849 849 850 850 851
779 782 782 785 788 788 800 809 809 811 804 799 801 801 801 799 797 797 798 799 798 796 795 799 801 806 814 809 808 808 805 807 807 808 809 811 814 815 817 818 820 822 823 825 826 826 827 827 828 828 828 829 830 831 832 833 833 834 835 834 834 834 834 836 838 839 839 839 841 843 843 843 843 843 843 843 843 845 845 845 846 847 848 850 850 851 851 851 850 850 850 850 851 850 851 852 852
779 783 784 791 796 795 805 809 809 810 803 798 797 798 798 797 796 797 799 800 802 801 799 800 799 809 816 809 813 811 805 807 807 809 810 812 815 816 818 819 821 823 825 826 827 828 828 829 829 830 830 831 831 832 833 833 834 835 837 835 835 836 835 836 839 839 838 839 842 843 844 845 845 845 845 845 845 846 846 847 847 848 849 850 851 851 851 850 850 851 851 852 852 852 852 853 854
779 784 786 793 801 802 807 810 808 806 801 798 797 797 796 795 795 796 799 801 802 802 803 801 799 811 817 812 816 811 807 809 808 811 812 814 816 817 820 821 823 824 826 827 828 829 828 829 830 831 831 831 832 833 832 832 835 837 837 834 834 836 836 837 839 839 838 839 843 843 843 845 846 846 846 846 847 847 848 848 848 849 850 851 851 851 851 851 852 852 853 853 853 853 854 855 855
781 785 790 795 802 809 813 812 808 805 802 799 797 796 796 795 795 797 799 802 802 803 804 800 801 811 815 817 817 811 810 810 810 813 814 816 817 819 821 822 824 825 827 828 828 828 828 829 830 831 831 832 833 833 832 833 836 837 836 834 834 835 835 837 839 840 839 841 843 844 844 845 846 848 848 848 848 849 849 849 850 850 851 852 852 852 852 853 853 854 854 854 854 855 856 856 857
787 787 789 799 807 814 816 813 809 805 801 799 799 796 795 795 796 799 800 803 803 805 805 801 808 813 814 819 818 813 812 812 812 814 815 817 818 820 822 824 826 827 828 829 828 827 828 829 829 831 831 832 833 833 833 834 836 836 835 835 834 834 836 838 839 840 839 841 844 845 845 846 847 848 849 849 850 850 850 851 851 851 852 853 853 853 853 854 855 855 855 855 856 856 857 858 858
792 794 792 803 812 813 812 812 809 805 802 801 802 796 794 795 797 801 803 805 805 806 805 803 809 809 816 822 818 814 813 814 814 815 817 818 820 821 823 825 826 828 829 829 827 826 828 829 829 830 832 832 832 832 833 834 835 835 836 835 835 835 836 839 841 840 839 842 844 845 846 847 848 849 850 850 851 851 852 852 852 853 853 854 854 854 855 855 856 856 856 856 857 858 858 859 859
793 797 796 806 812 810 809 810 808 806 806 803 801 796 793 797 798 800 803 806 806 808 806 802 803 806 818 823 817 815 814 815 816 817 818 819 821 822 824 826 827 829 829 828 826 826 829 829 829 831 832 832 832 832 833 834 835 835 836 836 836 836 837 840 842 842 840 842 844 845 846 847 848 850 851 851 852 852 853 853 854 854 855 855 855 856 856 857 857 857 857 858 858 859 860 860 860
791 794 797 808 810 807 808 810 808 808 811 803 798 795 795 798 798 796 799 807 809 807 804 799 800 808 819 822 821 818 815 816 817 818 819 821 823 823 825 827 828 829 829 828 826 827 830 831 830 832 833 833 832 832 833 835 835 835 836 836 836 836 838 841 843 844 843 843 844 846 847 848 849 850 852 852 853 853 854 855 855 856 856 856 857 857 857 858 858 858 859 859 860 860 861 861 862
789 791 796 807 810 808 808 808 806 809 811 801 797 795 797 799 797 798 798 805 809 801 800 800 800 809 818 820 822 818 815 817 817 819 820 822 824 825 827 828 829 830 830 828 826 828 830 831 831 832 834 833 832 831 833 835 835 835 836 836 836 836 838 841 844 846 846 844 846 847 849 850 850 851 852 853 853 854 855 856 857 857 857 857 858 858 858 858 859 859 860 860 861 861 862 862 863
786 790 798 808 812 812 809 806 805 810 808 799 796 794 800 802 796 801 798 798 805 800 801 805 802 807 812 814 816 814 815 817 818 821 821 823 825 826 828 829 830 831 831 829 828 830 830 831 832 834 835 834 833 831 833 835 836 836 836 836 837 837 839 842 844 847 848 847 848 848 851 852 851 852 853 854 854 855 856 857 858 858 858 858 859 859 859 859 860 860 861 861 862 862 863 863 863
785 792 804 811 813 813 809 806 808 810 806 799 797 794 802 806 799 799 796 796 804 804 804 806 803 803 807 810 811 812 815 817 819 821 822 824 825 827 829 829 831 832 832 830 829 831 831 832 833 835 835 835 834 833 834 835 836 837 837 838 838 839 840 842 844 847 849 849 849 849 852 853 853 853 853 854 856 857 858 858 859 859 859 859 860 860 860 861 861 861 862 862 863 863 864 864 864
791 800 809 812 812 810 805 804 804 803 803 801 798 795 800 806 804 800 800 804 807 807 808 807 806 805 807 809 811 814 816 818 820 821 823 824 826 827 829 830 831 832 832 831 831 832 833 834 835 836 837 836 835 835 836 836 837 838 839 840 839 840 841 843 844 847 850 851 851 850 852 854 854 854 853 854 857 858 859 860 860 860 860 860 861 861 861 862 862 862 863 863 864 864 865 865 865
796 804 809 808 807 804 799 800 799 798 800 800 798 796 797 802 803 800 806 813 810 812 814 811 812 811 810 811 813 816 816 819 820 822 823 824 826 827 828 830 832 832 832 832 832 833 834 835 836 837 838 838 837 837 837 837 838 839 841 841 841 842 842 843 845 847 850 852 851 851 853 854 854 853 854 856 858 860 860 861 861 861 861 861 862 862 862 863 863 863 864 864 865 865 866 866 866
796 802 809 805 801 800 796 797 797 796 796 797 799 797 798 800 799 800 809 815 813 815 816 814 817 816 814 813 814 817 818 820 821 822 824 825 827 827 828 830 831 832 832 832 832 834 835 836 837 838 839 839 839 839 838 838 838 840 842 843 843 844 844 845 846 848 850 852 853 854 853 852 853 854 856 859 860 861 861 861 861 862 862 862 863 863 863 864 864 865 865 866 866 866 867 867 867
796 800 806 802 800 801 796 796 795 793 793 795 798 798 802 800 797 802 808 816 818 815 811 809 813 813 813 814 815 817 819 820 822 824 825 826 827 828 829 830 832 833 833 833 833 834 836 837 837 839 840 840 841 840 840 840 839 840 843 844 845 846 847 847 848 850 851 853 855 855 855 854 855 857 859 861 862 862 862 862 862 862 863 863 864 864 865 865 866 866 867 867 867 868 868 868 868
797 800 801 799 801 803 797 795 794 792 793 795 798 800 803 800 800 804 805 812 815 808 805 805 806 808 810 812 815 818 819 821 823 824 826 826 827 828 830 831 832 833 834 834 834 834 836 837 838 839 841 841 842 842 842 842 842 842 843 845 846 847 848 849 850 851 852 853 855 856 857 858 859 860 861 862 863 863 863 863 863 864 864 865 865 866 866 867 867 868 868 868 868 868 868 869 868
799 802 798 798 800 802 798 795 794 793 794 797 799 800 799 801 805 805 804 808 806 800 802 804 805 806 808 811 815 818 820 822 823 824 825 826 827 828 830 831 832 833 834 835 835 835 836 838 839 840 841 842 843 843 844 844 844 844 845 846 847 848 849 850 851 852 853 855 856 858 859 860 861 862 863 863 864 864 865 865 865 865 866 866 866 867 867 868 868 869 869 869 869 869 869 869 869
798 802 799 798 798 798 797 795 795 794 795 797 796 798 801 804 806 806 806 806 802 800 801 803 806 808 810 812 815 818 820 822 823 824 825 826 826 828 829 831 832 833 835 836 836 836 836 838 839 840 841 842 843 844 845 846 846 847 847 848 849 850 851 852 853 854 855 856 857 859 860 861 862 863 864 864 865 865 866 866 866 866 867 867 867 868 868 869 869 869 869 870 870 870 869 869 869
797 801 800 799 798 796 795 794 796 796 796 796 795 800 804 804 804 806 808 805 801 801 803 805 808 810 812 814 816 818 820 822 823 825 826 827 827 829 830 831 832 834 835 836 837 837 837 838 839 840 841 843 844 845 846 847 848 849 850 850 851 852 853 853 855 856 857 858 859 860 861 862 863 864 865 865 866 866 866 867 867 867 867 868 868 869 869 869 870 870 870 870 870 870 869 869 869
796 799 800 799 799 796 794 796 798 798 797 796 797 803 804 801 803 808 808 805 802 802 805 807 809 812 814 815 817 818 820 822 823 824 826 827 828 829 830 831 832 834 835 836 837 838 838 838 839 840 842 843 845 846 847 848 849 850 851 852 853 854 854 855 856 857 858 859 860 861 862 863 864 865 865 866 867 867 867 868 868 868 869 869 869 869 870 870 870 870 870 870 870 870 869 869 869
793 798 799 798 799 796 795 797 800 799 798 797 800 805 805 800 805 811 809 804 802 805 809 810 811 814 815 816 817 818 820 821 822 824 826 828 828 829 830 831 832 833 835 837 838 839 839 839 840 841 842 843 845 846 847 848 850 851 852 853 854 855 856 857 858 859 859 860 861 862 863 864 865 866 866 867 868 868 868 869 869 869 870 870 870 870 870 870 870 870 870 870 870 870 870 869 869
794 797 800 801 799 799 798 800 803 799 801 801 801 807 806 803 807 810 807 803 802 807 812 812 813 815 815 816 817 818 820 821 823 824 825 826 827 828 829 830 832 833 835 837 838 839 840 840 841 842 843 844 845 847 848 849 851 852 853 854 855 856 857 858 859 860 860 861 862 863 864 865 866 866 867 868 868 869 869 870 870 870 871 871 871 871 871 871 871 871 871 871 871 871 870 870 870
796 796 803 806 801 805 805 804 804 800 804 804 803 815 816 810 810 807 803 803 804 808 813 814 815 816 816 817 818 819 820 821 822 823 824 825 826 827 829 830 831 833 835 836 838 839 841 841 842 843 843 845 846 847 849 850 851 852 854 855 856 856 857 858 859 860 861 862 863 864 865 865 866 867 868 868 869 869 870 870 871 871 871 872 872 872 872 872 871 872 872 871 871 871 871 870 870
798 797 803 809 810 814 809 805 804 802 807 803 807 827 826 815 811 806 804 804 807 813 815 816 816 816 817 818 819 820 819 821 821 822 824 825 826 828 829 831 832 833 835 836 838 839 841 842 843 844 844 845 846 848 849 850 852 853 854 855 856 856 857 858 859 861 862 863 863 864 865 866 867 867 868 869 869 870 871 871 872 872 872 872 872 872 872 872 872 872 872 872 872 872 871 871 870
801 804 805 809 817 821 810 805 806 807 809 803 808 828 827 816 811 807 805 804 808 815 816 816 817 817 818 818 819 820 819 819 820 821 823 824 826 828 829 831 832 833 834 836 838 839 841 842 843 844 845 846 847 848 849 851 852 853 854 855 856 857 858 859 860 861 862 863 864 865 866 866 867 868 869 869 870 871 871 872 872 872 873 873 873 873 873 873 873 873 873 872 872 872 872 871 871
804 812 816 813 817 822 813 807 807 809 810 805 811 825 824 816 811 807 806 806 809 814 816 816 817 818 818 819 819 820 819 819 820 822 823 825 826 828 829 831 832 833 834 836 838 839 841 842 844 845 845 846 847 849 850 851 852 853 855 855 856 857 858 859 860 862 863 864 865 865 866 867 868 868 869 870 870 871 871 872 872 873 873 873 873 873 873 873 873 873 873 873 873 872 872 872 871
808 814 823 819 818 823 819 811 806 807 810 810 814 822 823 816 810 808 807 808 811 815 817 816 817 818 818 819 819 820 820 820 821 821 823 824 826 827 829 830 832 833 834 836 837 839 841 842 844 845 846 847 848 850 851 852 853 854 855 856 857 858 859 860 861 862 863 864 865 866 867 867 868 869 869 870 871 871 872 872 873 873 873 873 873 873 874 874 874 874 874 873 873 873 872 872 871
816 816 821 820 818 821 822 816 809 806 811 814 815 819 820 814 810 810 809 809 813 816 817 817 817 817 817 818 819 820 821 821 820 820 822 824 825 827 828 830 832 833 834 836 837 839 841 842 844 845 846 848 849 850 851 852 853 854 855 856 857 858 860 861 862 863 863 864 865 866 867 868 868 869 870 870 871 871 872 872 873 873 873 873 874 874 874 874 874 874 874 874 873 873 872 872 871
815 818 820 821 819 820 822 819 811 807 812 817 819 820 819 815 811 811 810 810 813 815 816 816 817 817 817 818 819 820 820 820 818 818 820 822 824 826 828 830 832 833 834 836 837 839 841 842 844 845 847 848 849 850 852 853 854 855 856 856 858 859 860 861 862 863 863 864 865 866 867 868 869 869 870 870 871 871 872 872 873 873 873 873 874 874 874 874 874 874 874 874 873 873 872 872 871
807 812 815 822 823 822 820 816 812 810 816 820 821 822 821 817 814 812 812 811 813 815 815 817 818 817 818 818 818 819 819 818 816 816 819 821 823 825 827 829 831 833 834 836 837 839 840 842 843 845 846 848 849 850 852 853 854 855 856 856 858 858 860 861 862 863 864 864 865 866 867 868 869 869 870 871 871 872 872 872 873 873 873 874 874 874 874 874 874 874 874 874 873 873 873 872 871
803 809 815 819 823 824 818 815 815 812 818 823 820 821 822 819 815 813 812 813 814 816 817 818 818 818 818 817 817 818 818 816 814 817 819 821 823 825 827 829 831 833 834 836 837 838 840 842 843 844 846 847 849 850 851 852 853 854 855 856 857 858 859 861 862 863 863 864 865 866 867 868 869 869 870 871 871 871 872 872 873 873 873 874 874 874 874 874 875 875 874 874 873 873 873 872 871
803 810 817 821 822 823 817 816 816 811 818 824 819 821 824 820 817 814 812 814 815 815 817 817 817 817 817 816 816 816 816 815 815 817 819 821 823 825 826 828 830 831 833 835 836 838 840 841 843 844 846 847 848 850 851 852 853 854 855 856 857 858 859 860 861 862 863 864 865 866 867 868 869 869 870 870 871 871 872 873 873 873 874 874 874 874 875 875 875 875 875 874 873 873 873 872 871
806 812 819 823 821 821 820 817 816 813 817 824 821 823 825 819 817 815 813 814 813 812 812 813 814 816 816 815 814 814 816 816 816 817 818 820 822 824 826 827 829 830 832 834 835 837 839 841 843 844 845 846 848 849 850 852 853 854 855 856 857 858 859 860 862 863 864 864 865 866 867 868 868 869 870 870 871 871 872 873 873 874 874 874 875 875 875 875 875 875 875 874 873 873 873 872 871
808 814 819 824 820 820 824 822 819 815 817 823 822 824 825 820 818 816 813 812 812 811 811 810 811 812 813 812 811 812 814 816 816 816 817 819 822 823 825 826 828 830 832 834 835 837 839 840 842 843 845 846 848 849 850 852 853 854 856 857 858 859 860 861 862 863 864 864 865 866 866 867 868 869 870 871 871 872 872 873 873 874 874 875 875 875 875 875 875 875 875 874 874 873 873 872 871
807 809 814 819 817 816 819 821 821 819 820 820 821 832 832 823 823 820 813 813 812 811 811 811 810 809 809 809 810 810 811 813 814 815 816 818 820 822 823 825 827 829 831 832 834 835 837 839 841 843 845 846 847 849 850 852 853 854 856 857 858 859 859 860 861 862 863 864 865 866 866 867 868 869 870 871 871 872 872 873 873 874 874 874 875 875 875 875 875 875 875 874 874 873 873 873 872
809 804 804 807 810 814 819 822 823 829 834 823 822 845 843 824 824 823 816 816 815 812 812 811 810 809 809 810 810 809 809 810 811 812 814 815 818 820 822 824 826 828 829 830 832 834 836 838 840 842 844 846 847 849 850 852 853 854 855 856 857 857 859 859 860 861 863 864 864 865 866 867 868 869 869 870 871 871 872 872 873 874 874 874 875 875 875 875 875 875 875 875 874 874 873 873 873
815 801 794 800 806 815 823 822 825 836 840 824 820 841 845 830 823 819 815 818 816 813 813 810 809 809 808 808 807 808 808 809 810 810 812 814 816 819 821 822 824 825 827 829 832 834 835 837 839 842 844 845 847 849 850 851 852 853 854 855 856 857 858 858 860 861 862 863 864 865 866 867 867 868 869 870 871 871 872 872 873 873 874 874 875 875 875 875 875 875 875 875 874 874 874 873 873
813 795 790 800 804 814 821 819 825 831 830 829 825 832 844 839 822 811 813 820 818 814 813 809 807 807 807 805 805 805 806 807 808 810 810 812 814 816 818 819 821 823 826 829 831 833 835 836 838 841 843 845 847 848 850 851 852 853 854 855 856 856 857 858 859 861 862 863 864 865 866 867 867 868 869 870 870 871 871 872 873 873 874 874 874 875 875 875 875 875 875 875 874 874 874 874 873
803 791 792 799 802 812 818 819 826 826 829 840 835 831 844 840 818 809 811 819 820 813 809 808 805 805 805 804 803 802 803 804 805 807 808 810 812 813 815 817 819 822 825 827 829 831 833 835 837 839 842 844 846 847 849 850 851 852 853 854 855 856 857 858 859 860 861 862 863 864 865 866 867 868 868 869 870 870 871 872 872 873 873 874 874 874 875 875 874 874 874 874 874 874 874 874 874
795 791 796 802 808 817 823 827 829 830 838 846 838 834 846 839 819 818 820 819 816 806 802 804 801 801 802 802 801 800 801 802 802 804 805 807 808 810 813 816 819 822 824 826 828 830 832 835 837 838 841 842 844 847 848 849 851 852 853 854 854 856 857 858 859 860 860 861 862 863 864 865 866 867 867 868 869 870 870 871 871 872 873 873 874 874 874 874 874 874 874 874 874 874 874 874 874
790 795 805 813 822 826 830 833 833 840 845 840 831 828 842 841 821 815 815 803 795 794 799 802 799 799 799 799 800 799 800 801 801 802 803 805 807 809 813 815 818 821 823 826 827 830 832 833 835 837 839 841 843 845 847 848 850 851 852 853 854 855 856 857 858 859 859 860 861 862 863 864 865 866 866 867 868 869 869 870 871 871 872 872 873 873 874 874 874 874 874 874 874 874 874 874 874
788 798 810 821 835 838 838 838 839 848 846 833 826 824 840 847 819 803 800 786 781 788 793 797 797 798 797 797 798 797 797 798 799 801 803 805 808 811 813 815 818 820 823 825 826 828 830 832 834 836 838 840 841 843 845 847 848 850 851 852 853 855 856 856 857 858 859 859 860 861 862 863 864 865 865 866 867 868 868 869 870 870 871 871 872 873 873 873 874 874 874 874 874 874 874 874 874
794 803 811 825 847 851 850 850 847 847 841 829 826 826 838 838 808 793 793 785 783 784 783 786 790 793 794 794 795 795 795 796 797 799 801 804 807 809 812 814 817 819 820 823 824 826 828 830 832 834 836 838 840 841 843 845 847 848 850 851 852 854 855 856 856 857 858 859 860 861 861 862 863 864 864 865 865 867 867 868 869 869 870 871 871 872 872 873 873 873 874 874 874 874 874 874 874
800 804 808 822 845 854 858 860 851 844 838 828 826 829 835 825 799 787 785 780 778 776 776 779 781 785 789 790 792 793 794 794 795 797 799 802 804 806 809 811 814 816 818 820 823 824 826 828 830 832 834 836 838 839 841 843 844 846 848 849 851 853 853 855 856 856 857 858 859 860 861 861 862 862 863 864 865 866 866 867 868 869 869 870 870 871 872 872 872 873 873 873 874 874 874 874 874
797 792 796 807 818 829 841 848 844 842 841 834 832 833 829 817 799 786 780 776 773 771 772 774 776 780 783 786 790 792 793 793 793 795 797 799 801 804 807 809 811 814 816 819 821 823 824 826 828 829 832 834 835 837 839 840 842 844 846 848 849 851 852 853 855 856 857 858 858 859 860 861 861 862 862 863 864 865 865 866 867 867 868 869 869 870 870 871 871 872 872 872 873 873 873 873 873
798 788 795 801 795 798 817 830 829 835 844 842 837 828 812 800 790 783 780 778 774 771 771 774 777 779 781 785 788 790 792 792 792 794 795 797 799 802 804 807 809 812 814 817 819 821 823 824 826 827 829 831 833 835 836 838 840 841 843 845 847 849 851 852 853 854 856 856 858 858 859 860 860 861 862 862 863 864 864 865 865 866 867 867 868 868 869 869 870 870 871 871 871 872 872 872 872
796 795 797 792 783 785 808 827 826 829 840 838 832 822 806 797 791 784 784 783 780 778 775 776 778 779 781 784 785 787 789 788 790 791 793 795 797 800 803 805 808 810 812 815 817 818 820 821 823 825 827 829 830 832 834 836 838 839 841 843 845 847 849 850 852 853 854 855 857 857 858 859 860 860 861 861 862 863 863 864 864 865 865 866 867 867 868 868 868 869 869 870 870 870 870 871 871
788 797 788 781 784 785 796 822 833 835 837 831 828 826 816 811 806 794 791 792 790 786 781 780 781 781 782 783 782 784 785 786 787 788 790 793 795 798 801 803 806 808 810 812 814 816 817 819 821 823 825 826 828 830 831 834 835 837 839 841 843 845 846 848 850 852 853 854 855 856 857 858 858 859 860 861 861 862 862 863 863 864 864 865 865 866 866 867 867 868 868 868 868 869 869 869 869
772 780 774 777 795 797 798 816 830 836 839 831 826 827 823 822 819 807 802 802 798 794 787 783 784 784 783 783 783 783 784 785 787 787 789 791 793 796 798 801 804 806 808 810 812 814 816 818 819 821 823 824 825 828 829 832 833 835 837 839 841 843 844 846 848 850 852 852 854 855 856 856 857 858 859 859 860 861 861 862 862 863 863 863 864 864 865 865 865 866 866 866 867 867 867 868 868
766 771 773 777 787 793 797 803 809 820 834 833 824 822 823 822 818 812 808 804 800 797 792 786 784 784 783 783 784 784 785 785 785 787 788 789 791 794 796 800 802 804 807 809 811 813 814 816 818 819 821 823 825 826 828 829 831 833 835 837 839 841 843 845 846 848 849 850 852 853 854 855 856 857 857 858 859 859 860 861 861 861 862 862 862 862 863 863 864 864 865 865 866 866 866 866 867
775 779 781 782 783 785 791 796 799 804 817 826 821 819 824 819 811 810 807 801 798 796 792 787 784 783 783 783 783 784 785 785 785 786 787 788 790 793 796 799 801 804 806 808 810 812 813 814 816 817 819 821 823 825 826 828 829 831 833 835 837 839 841 843 844 846 847 848 850 851 852 853 854 855 856 856 857 858 858 859 859 860 860 860 860 861 861 862 862 863 863 864 864 864 865 865 865
778 783 784 786 786 787 795 805 805 800 805 815 815 817 824 817 807 806 805 799 796 793 788 787 785 784 785 784 783 783 784 785 785 785 786 787 789 792 795 798 800 803 805 807 809 811 812 814 815 816 818 819 821 823 824 825 827 829 831 833 835 837 839 841 842 844 845 846 848 849 850 852 852 853 854 855 855 856 857 857 857 858 858 858 859 859 860 860 861 862 862 862 863 863 863 863 863